Simultaneous Nadir Overpasses (SNOs) Predictions

Prediction of SNOs between FY3D and LANDSAT-8 Satellite Orbit:

Table of predicted SNOs for the next 14.0 days since TLE Epoch: 12/14/2024
Index Date (FY3D) Time (FY3D) Lat,Lon (FY3D) SZA (FY3D ) Date (LANDSAT-8) Time (LANDSAT-8) Lat,Lon (LANDSAT-8) SZA (LANDSAT-8 ) Distance(km) Time Diff (sec)
1 12/16/2024 16:18:37 75.13, -58.91 98.49 12/16/2024 16:19:13 75.14, -58.98 98.50 2.09 36
2 12/16/2024 17:09:20 -75.10, 108.50 81.54 12/16/2024 17:08:41 -75.12, 108.60 81.52 3.54 39
3 12/19/2024 07:45:01 -75.66,-112.09 80.95 12/19/2024 07:46:08 -75.59,-109.50 80.96 72.01 67
4 12/19/2024 08:35:36 75.14, 56.89 98.56 12/19/2024 08:35:43 75.11, 56.83 98.54 3.32 7
5 12/19/2024 09:26:19 -75.11,-135.70 81.47 12/19/2024 09:25:11 -75.09,-135.58 81.49 3.68 68
6 12/22/2024 00:01:49 -75.17, 5.30 81.40 12/22/2024 00:02:45 -75.18, 5.25 81.39 1.95 56
7 12/22/2024 00:52:34 75.11, 172.79 98.55 12/22/2024 00:52:12 75.10, 172.68 98.53 3.52 22
8 12/24/2024 16:18:48 -75.19, 121.04 81.43 12/24/2024 16:19:13 -75.18, 121.15 81.44 3.19 25
9 12/24/2024 17:09:32 75.09, -71.33 98.48 12/24/2024 17:08:40 75.10, -71.44 98.48 3.04 52
10 12/27/2024 07:45:02 75.22, 69.45 98.50 12/27/2024 07:46:11 75.21, 69.48 98.50 1.46 69
11 12/27/2024 08:35:44 -75.14,-122.97 81.58 12/27/2024 08:35:40 -75.15,-123.05 81.57 2.86 4



Historial Predications of SNOs between FY3D and LANDSAT-8
